When you browse on this site, cookies collect data to enhance your experience and personalize the content and advertising you see.
Visit our Privacy Policy to learn more. By continuing to use the site, you agree to this use of cookies and data.
  • Em Portugal
  • Lista de países
  • Para 7 dias
  • Temperatura da água
  • Mapas de satélite
  • Mapa do tempo
  • Widgets de tempo
  • user-avatar
    Iniciar Sessão

    Previsão horária em Dovsk

    Hoje, 20 Junho, Quinta-feira

    Tempo Temperatura Precipitação Vento Pressão Humidade
    00:00 +18°C° 0 mm 2 m/s 747 mmHg 81%
    01:00 +18°C° 0 mm 2 m/s 747 mmHg 82%
    02:00 +17°C° 0 mm 2 m/s 747 mmHg 81%
    03:00 +17°C° 0 mm 2 m/s 747 mmHg 82%
    04:00 +18°C° 0 mm 2 m/s 747 mmHg 83%
    05:00 +18°C° 0 mm 2 m/s 747 mmHg 84%
    06:00 +19°C° 0 mm 2 m/s 747 mmHg 81%
    07:00 +20°C° 0 mm 2 m/s 747 mmHg 78%
    08:00 +23°C° 0 mm 2 m/s 747 mmHg 74%
    09:00 +24°C° 0.2 mm 2 m/s 747 mmHg 71%
    10:00 +25°C° 0.2 mm 3 m/s 747 mmHg 68%
    11:00 +27°C° 0.2 mm 3 m/s 747 mmHg 66%
    12:00 +27°C° 0.6 mm 3 m/s 747 mmHg 65%
    13:00 +27°C° 0.6 mm 4 m/s 747 mmHg 64%
    14:00 +28°C° 0.6 mm 4 m/s 746 mmHg 64%
    15:00 +27°C° 0.4 mm 4 m/s 746 mmHg 68%
    16:00 +27°C° 0.4 mm 3 m/s 746 mmHg 71%
    17:00 +26°C° 0.4 mm 3 m/s 746 mmHg 75%
    18:00 +25°C° 0.1 mm 3 m/s 746 mmHg 79%
    19:00 +24°C° 0.1 mm 3 m/s 746 mmHg 82%
    20:00 +22°C° 0.1 mm 3 m/s 746 mmHg 86%
    21:00 +21°C° 0.1 mm 3 m/s 746 mmHg 88%
    22:00 +21°C° 0.1 mm 3 m/s 746 mmHg 90%
    23:00 +20°C° 0.1 mm 3 m/s 746 mmHg 92%

    Amanhã, 21 Junho, Sexta-feira

    Tempo Temperatura Precipitação Vento Pressão Humidade
    00:00 +20°C° 0.2 mm 3 m/s 746 mmHg 93%
    01:00 +20°C° 0.2 mm 3 m/s 746 mmHg 94%
    02:00 +19°C° 0.2 mm 3 m/s 746 mmHg 95%
    03:00 +19°C° 0 mm 3 m/s 746 mmHg 95%
    04:00 +19°C° 0 mm 3 m/s 746 mmHg 94%
    05:00 +20°C° 0 mm 3 m/s 746 mmHg 94%
    06:00 +21°C° 0 mm 4 m/s 747 mmHg 90%
    07:00 +22°C° 0 mm 4 m/s 747 mmHg 86%
    08:00 +25°C° 0 mm 4 m/s 747 mmHg 81%
    09:00 +26°C° 0.6 mm 5 m/s 747 mmHg 77%
    10:00 +27°C° 0.6 mm 5 m/s 747 mmHg 73%
    11:00 +28°C° 0.6 mm 5 m/s 746 mmHg 68%
    12:00 +28°C° 0.5 mm 5 m/s 746 mmHg 67%
    13:00 +29°C° 0.5 mm 5 m/s 746 mmHg 66%
    14:00 +29°C° 0.5 mm 5 m/s 746 mmHg 64%
    15:00 +29°C° 0.3 mm 5 m/s 746 mmHg 66%
    16:00 +29°C° 0.3 mm 4 m/s 746 mmHg 69%
    17:00 +28°C° 0.3 mm 3 m/s 746 mmHg 71%
    18:00 +27°C° 0.2 mm 3 m/s 746 mmHg 75%
    19:00 +25°C° 0.2 mm 3 m/s 746 mmHg 80%
    20:00 +24°C° 0.2 mm 3 m/s 745 mmHg 84%
    21:00 +22°C° 0 mm 3 m/s 746 mmHg 86%
    22:00 +22°C° 0 mm 3 m/s 746 mmHg 87%
    23:00 +21°C° 0 mm 3 m/s 746 mmHg 89%

    Depois de amanhã, 22 Junho, Sábado

    Tempo Temperatura Precipitação Vento Pressão Humidade
    00:00 +21°C° 0 mm 3 m/s 746 mmHg 90%
    01:00 +20°C° 0 mm 3 m/s 746 mmHg 90%
    02:00 +20°C° 0 mm 3 m/s 746 mmHg 91%
    03:00 +20°C° 0 mm 3 m/s 746 mmHg 91%
    04:00 +20°C° 0 mm 3 m/s 746 mmHg 90%
    05:00 +20°C° 0 mm 3 m/s 746 mmHg 89%
    06:00 +21°C° 0.1 mm 3 m/s 746 mmHg 85%
    07:00 +24°C° 0.1 mm 3 m/s 747 mmHg 81%
    08:00 +25°C° 0.1 mm 4 m/s 747 mmHg 78%
    09:00 +26°C° 1.8 mm 4 m/s 747 mmHg 75%
    10:00 +27°C° 1.8 mm 4 m/s 747 mmHg 73%
    11:00 +28°C° 1.8 mm 4 m/s 747 mmHg 71%
    12:00 +28°C° 1.8 mm 4 m/s 747 mmHg 71%
    13:00 +28°C° 1.8 mm 4 m/s 747 mmHg 70%
    14:00 +29°C° 1.8 mm 4 m/s 747 mmHg 69%
    15:00 +28°C° 2.1 mm 3 m/s 747 mmHg 71%
    16:00 +28°C° 2.1 mm 2 m/s 747 mmHg 74%
    17:00 +28°C° 2.1 mm 1 m/s 746 mmHg 76%
    18:00 +26°C° 0.4 mm 1 m/s 747 mmHg 78%
    19:00 +25°C° 0.4 mm 1 m/s 747 mmHg 80%
    20:00 +24°C° 0.4 mm 1 m/s 747 mmHg 82%
    21:00 +23°C° 0.5 mm 1 m/s 747 mmHg 84%
    22:00 +22°C° 0.5 mm 1 m/s 747 mmHg 87%
    23:00 +21°C° 0.5 mm 1 m/s 747 mmHg 90%

    23 Junho, Domingo

    Tempo Temperatura Precipitação Vento Pressão Humidade
    00:00 +21°C° 0.1 mm 1 m/s 747 mmHg 90%
    01:00 +21°C° 0.1 mm 1 m/s 747 mmHg 90%
    02:00 +21°C° 0.1 mm 1 m/s 747 mmHg 90%
    03:00 +21°C° 0.3 mm 1 m/s 747 mmHg 91%
    04:00 +21°C° 0.3 mm 1 m/s 748 mmHg 92%
    05:00 +21°C° 0.3 mm 1 m/s 748 mmHg 93%
    06:00 +21°C° 0.5 mm 2 m/s 748 mmHg 90%
    07:00 +24°C° 0.5 mm 2 m/s 748 mmHg 87%
    08:00 +25°C° 0.5 mm 2 m/s 748 mmHg 83%
    09:00 +26°C° 1.9 mm 2 m/s 748 mmHg 78%
    10:00 +27°C° 1.9 mm 2 m/s 748 mmHg 72%
    11:00 +28°C° 1.9 mm 2 m/s 749 mmHg 67%
    12:00 +28°C° 1 mm 2 m/s 749 mmHg 66%
    13:00 +28°C° 1 mm 2 m/s 749 mmHg 66%
    14:00 +28°C° 1 mm 2 m/s 749 mmHg 65%
    15:00 +27°C° 0.8 mm 3 m/s 749 mmHg 72%
    16:00 +26°C° 0.8 mm 3 m/s 748 mmHg 80%
    17:00 +23°C° 0.8 mm 4 m/s 748 mmHg 87%
    18:00 +23°C° 0.6 mm 4 m/s 749 mmHg 88%
    19:00 +22°C° 0.6 mm 3 m/s 749 mmHg 90%
    20:00 +21°C° 0.6 mm 3 m/s 749 mmHg 92%
    21:00 +21°C° 0.2 mm 3 m/s 749 mmHg 93%
    22:00 +20°C° 0.2 mm 3 m/s 750 mmHg 94%
    23:00 +19°C° 0.2 mm 3 m/s 750 mmHg 96%

    24 Junho, Segunda-feira

    Tempo Temperatura Precipitação Vento Pressão Humidade
    00:00 +19°C° 0.4 mm 3 m/s 750 mmHg 96%
    01:00 +19°C° 0.4 mm 3 m/s 750 mmHg 97%
    02:00 +18°C° 0.4 mm 3 m/s 750 mmHg 97%
    03:00 +18°C° 0.4 mm 3 m/s 750 mmHg 97%
    04:00 +18°C° 0.4 mm 3 m/s 750 mmHg 97%
    05:00 +18°C° 0.4 mm 3 m/s 750 mmHg 97%
    06:00 +19°C° 0.8 mm 3 m/s 750 mmHg 96%
    07:00 +20°C° 0.8 mm 3 m/s 750 mmHg 94%
    08:00 +20°C° 0.8 mm 3 m/s 751 mmHg 93%
    09:00 +21°C° 0.8 mm 3 m/s 751 mmHg 92%
    10:00 +21°C° 0.8 mm 3 m/s 751 mmHg 91%
    11:00 +22°C° 0.8 mm 4 m/s 751 mmHg 90%
    12:00 +22°C° 0.2 mm 4 m/s 751 mmHg 88%
    13:00 +23°C° 0.2 mm 5 m/s 751 mmHg 86%
    14:00 +23°C° 0.2 mm 5 m/s 751 mmHg 84%
    15:00 +23°C° 0.3 mm 5 m/s 751 mmHg 83%
    16:00 +23°C° 0.3 mm 5 m/s 751 mmHg 83%
    17:00 +23°C° 0.3 mm 5 m/s 751 mmHg 83%
    18:00 +22°C° 0.2 mm 4 m/s 751 mmHg 85%
    19:00 +21°C° 0.2 mm 4 m/s 751 mmHg 88%
    20:00 +20°C° 0.2 mm 4 m/s 751 mmHg 90%
    21:00 +19°C° 0 mm 4 m/s 752 mmHg 89%
    22:00 +18°C° 0 mm 4 m/s 752 mmHg 89%
    23:00 +17°C° 0 mm 4 m/s 752 mmHg 88%

    25 Junho, Terça-feira

    Tempo Temperatura Precipitação Vento Pressão Humidade
    00:00 +17°C° 0 mm 3 m/s 752 mmHg 87%
    01:00 +16°C° 0 mm 3 m/s 752 mmHg 86%
    02:00 +14°C° 0 mm 3 m/s 752 mmHg 85%
    03:00 +16°C° 0 mm 3 m/s 752 mmHg 85%
    04:00 +16°C° 0 mm 3 m/s 752 mmHg 85%
    05:00 +16°C° 0 mm 2 m/s 752 mmHg 86%
    06:00 +17°C° 0 mm 2 m/s 752 mmHg 83%
    07:00 +18°C° 0 mm 3 m/s 752 mmHg 80%
    08:00 +20°C° 0 mm 3 m/s 752 mmHg 78%
    09:00 +21°C° 0 mm 3 m/s 752 mmHg 76%
    10:00 +22°C° 0 mm 3 m/s 752 mmHg 74%
    11:00 +24°C° 0 mm 3 m/s 752 mmHg 72%
    12:00 +23°C° 0 mm 4 m/s 752 mmHg 71%
    13:00 +25°C° 0 mm 4 m/s 752 mmHg 69%
    14:00 +25°C° 0 mm 4 m/s 752 mmHg 68%
    15:00 +25°C° 0 mm 4 m/s 751 mmHg 68%
    16:00 +25°C° 0 mm 4 m/s 751 mmHg 69%
    17:00 +23°C° 0 mm 5 m/s 751 mmHg 70%
    18:00 +22°C° 0 mm 4 m/s 751 mmHg 74%
    19:00 +20°C° 0 mm 3 m/s 751 mmHg 79%
    20:00 +19°C° 0 mm 3 m/s 751 mmHg 83%
    21:00 +18°C° 0 mm 3 m/s 751 mmHg 83%
    22:00 +17°C° 0 mm 3 m/s 751 mmHg 84%
    23:00 +16°C° 0 mm 3 m/s 751 mmHg 84%
    Mostrar mais